Surface/Precipitation History
08/29/2015 11:59  to  8/30/2015 11:59
Change End Date:
Date/Time
(MDT)
Sf
Temp Chem Water Layer Surface Precipitation
Sfc Pvt Sub Frz Factor Pct Dpth DpthThk IcePct Cond Salin FI Type Intens Accum Rate
08/30/2015 11:46 Wet 71.2F - 74F 32F 5 0% 0.00 in - 0% 0 mhos 1 - Yes - - -
08/30/2015 11:37 Dry 72.7F - 74F - - - - - - 0 mhos 0 - None None - -
08/30/2015 11:31 Dry 74.3F - 74F - - - - - - 0 mhos 0 - None None - -
08/30/2015 11:27 Dry 75.9F - 74F - - - - - - 0 mhos 0 - None None - -
08/30/2015 11:17 Dry 79.5F - 74F - - - - - - 0 mhos 0 - None None - -
08/30/2015 11:16 Dry 79.7F - 74F - - - - - - 0 mhos 0 - None None - -
08/30/2015 11:07 Dry 82.9F - 74F - - - - - - 0 mhos 0 - None None - -
08/30/2015 11:01 Dry 83.8F - 74F - - - - - - 0 mhos 0 - None None - -
08/30/2015 10:57 Dry 83.8F - 74F - - - - - - 0 mhos 0 - None None - -
08/30/2015 10:47 Dry 82.6F - 74F - - - - - - 0 mhos 0 - None None - -
08/30/2015 10:46 Dry 82.0F - 74F - - - - - - 0 mhos 0 - None None - -
08/30/2015 10:37 Dry 80.2F - 74F - - - - - - 0 mhos 0 - None None - -
08/30/2015 10:31 Dry 80.6F - 74F - - - - - - 0 mhos 0 - None None - -
08/30/2015 10:27 Dry 81.0F - 74F - - - - - - 0 mhos 0 - None None - -
08/30/2015 10:17 Dry 79.0F - 74F - - - - - - 0 mhos 0 - None None - -
Date/Time
(MDT)
Sf
Temp Chem Water Layer Surface Precipitation
Sfc Pvt Sub Frz Factor Pct Dpth DpthThk IcePct Cond Salin FI Type Intens Accum Rate
08/30/2015 10:16 Dry 78.6F - 74F - - - - - - 0 mhos 0 - None None - -
08/30/2015 10:07 Dry 75.0F - 74F - - - - - - 0 mhos 0 - None None - -
08/30/2015 10:01 Dry 73.4F - 74F - - - - - - 0 mhos 0 - None None - -
08/30/2015 09:57 Dry 72.9F - 74F - - - - - - 0 mhos 0 - None None - -
08/30/2015 09:47 Dry 70.7F - 74F - - - - - - 0 mhos 0 - None None - -
08/30/2015 09:46 Dry 70.7F - 74F - - - - - - 0 mhos 0 - None None - -
08/30/2015 09:37 Dry 69.3F - 74F - - - - - - 0 mhos 0 - None None - -
08/30/2015 09:31 Dry 67.1F - 74F - - - - - - 0 mhos 0 - None None - -
08/30/2015 09:27 Dry 64.8F - 75F - - - - - - 0 mhos 1 - None None - -
08/30/2015 09:17 Wet 64.8F - 75F 32F 5 0% 0.00 in - 0% 0 mhos 2 - None None - -
08/30/2015 09:16 Wet 64.6F - 75F 32F 5 0% 0.00 in - 0% 0 mhos 2 - None None - -
08/30/2015 09:06 Wet 63.3F - 75F 32F 5 0% 0.00 in - 0% 0 mhos 9 - Yes - - -
08/30/2015 09:01 Wet 62.4F - 75F 32F 5 0% 0.00 in - 0% 0 mhos 13 - Yes - - -
08/30/2015 08:56 Wet 61.9F - 75F 32F 5 0% 0.00 in - 0% 0 mhos 16 - Yes - - -
08/30/2015 08:46 Wet 60.6F - 75F 32F 5 0% 0.00 in - 0% 0 mhos 23 - Yes - - -
Date/Time
(MDT)
Sf
Temp Chem Water Layer Surface Precipitation
Sfc Pvt Sub Frz Factor Pct Dpth DpthThk IcePct Cond Salin FI Type Intens Accum Rate
08/30/2015 08:46 Wet 60.4F - 75F 32F 5 0% 0.00 in - 0% 0 mhos 24 - Yes - - -
08/30/2015 08:36 Wet 59.4F - 75F 32F 5 0% 0.00 in - 0% 0 mhos 27 - Yes - - -
08/30/2015 08:31 Wet 60.1F - 75F 32F 5 0% 0.00 in - 0% 0 mhos 29 - Yes - - -
08/30/2015 08:26 Wet 59.9F - 75F 32F 5 0% 0.00 in - 0% 0 mhos 30 - Yes - - -
08/30/2015 08:16 Wet 59.9F - 75F 32F 5 0% 0.00 in - 0% 0 mhos 32 - Yes - - -
08/30/2015 08:16 Wet 59.9F - 75F 32F 5 0% 0.00 in - 0% 0 mhos 32 - Yes - - -
08/30/2015 08:06 Wet 59.9F - 75F 32F 5 0% 0.00 in - 0% 0 mhos 35 - Yes - - -
08/30/2015 08:01 Wet 59.7F - 75F 32F 5 0% 0.00 in - 0% 0 mhos 35 - Yes - - -
08/30/2015 07:56 Wet 59.2F - 75F 32F 5 0% 0.00 in - 0% 0 mhos 35 - Yes - - -
08/30/2015 07:46 Wet 58.3F - 75F 32F 5 0% 0.00 in - 0% 0 mhos 36 - Yes - - -
08/30/2015 07:46 Wet 58.3F - 75F 32F 5 0% 0.00 in - 0% 0 mhos 36 - Yes - - -
08/30/2015 07:36 Wet 58.5F - 75F 32F 5 0% 0.00 in - 0% 1 mhos 37 - Yes - - -
08/30/2015 07:31 Wet 58.1F - 75F 32F 5 0% 0.00 in - 0% 0 mhos 36 - Yes - - -
08/30/2015 07:26 Wet 58.1F - 75F 32F 5 0% 0.00 in - 0% 0 mhos 35 - Yes - - -
08/30/2015 07:16 Wet 58.6F - 75F 32F 5 0% 0.00 in - 0% 1 mhos 40 - Yes - - -
Date/Time
(MDT)
Sf
Temp Chem Water Layer Surface Precipitation
Sfc Pvt Sub Frz Factor Pct Dpth DpthThk IcePct Cond Salin FI Type Intens Accum Rate
08/30/2015 07:16 Wet 58.6F - 75F 32F 5 0% 0.00 in - 0% 1 mhos 40 - Yes - - -
08/30/2015 07:06 Wet 59.7F - 76F 32F 15 0% 0.00 in - 0% 1 mhos 47 - Yes - - -
08/30/2015 07:01 Wet 59.9F - 76F 32F 10 0% 0.00 in - 0% 1 mhos 52 - Yes - - -
08/30/2015 06:56 Wet 59.7F - 76F 32F 5 0% 0.00 in - 0% 0 mhos 36 - Yes - - -
08/30/2015 06:46 Wet 59.9F - 76F 32F 5 0% 0.00 in - 0% 0 mhos 32 - Yes - - -
08/30/2015 06:46 Wet 59.9F - 76F 32F 5 0% 0.00 in - 0% 0 mhos 32 - Yes - - -
08/30/2015 06:35 Wet 59.9F - 76F 32F 5 0% 0.00 in - 0% 0 mhos 32 - Yes - - -
08/30/2015 06:31 Wet 59.9F - 76F 32F 5 0% 0.00 in - 0% 0 mhos 31 - Yes - - -
08/30/2015 06:25 Wet 59.9F - 76F 32F 5 0% 0.00 in - 0% 0 mhos 31 - Yes - - -
08/30/2015 06:16 Wet 59.7F - 76F 32F 5 0% 0.00 in - 0% 0 mhos 30 - Yes - - -
08/30/2015 06:15 Wet 59.7F - 76F 32F 5 0% 0.00 in - 0% 0 mhos 30 - Yes - - -
08/30/2015 06:05 Wet 59.9F - 76F 32F 15 0% 0.00 in - 0% 0 mhos 28 - Yes - - -
08/30/2015 06:01 Wet 60.1F - 76F 32F 15 0% 0.00 in - 0% 0 mhos 21 - Yes - - -
08/30/2015 05:55 Wet 60.3F - 76F 32F 25 0% 0.00 in - 0% 0 mhos 26 - Yes - - -
08/30/2015 05:46 Wet 60.6F - 76F 32F 35 0% 0.00 in - 0% 0 mhos 25 - Yes - - -
Date/Time
(MDT)
Sf
Temp Chem Water Layer Surface Precipitation
Sfc Pvt Sub Frz Factor Pct Dpth DpthThk IcePct Cond Salin FI Type Intens Accum Rate
08/30/2015 05:45 Wet 60.6F - 76F 32F 35 0% 0.00 in - 0% 0 mhos 25 - Yes - - -
08/30/2015 05:35 Wet 60.8F - 76F 32F 25 0% 0.00 in - 0% 0 mhos 23 - Yes - - -
08/30/2015 05:31 Wet 61.0F - 76F 32F 25 0% 0.00 in - 0% 0 mhos 21 - Yes - - -
08/30/2015 05:25 Wet 61.0F - 76F 32F 20 0% 0.00 in - 0% 0 mhos 21 - Yes - - -
08/30/2015 05:16 Wet 61.2F - 76F 32F 55 0% 0.00 in - 0% 0 mhos 19 - Yes - - -
08/30/2015 05:15 Wet 61.2F - 76F 32F 55 0% 0.00 in - 0% 0 mhos 19 - Yes - - -
08/30/2015 05:05 Wet 61.3F - 76F 32F 60 0% 0.00 in - 0% 0 mhos 20 - Yes - - -
08/30/2015 05:01 Wet 61.3F - 76F 32F 60 0% 0.00 in - 0% 0 mhos 19 - Yes - - -
08/30/2015 04:55 Wet 61.3F - 76F 32F 65 0% 0.00 in - 0% 0 mhos 15 - Yes - - -
08/30/2015 04:46 Wet 62.1F - 76F 32F 60 0% 0.00 in - 0% 0 mhos 14 - Yes - - -
08/30/2015 04:45 Wet 62.1F - 76F 32F 60 0% 0.00 in - 0% 0 mhos 14 - Yes - - -
08/30/2015 04:35 Wet 62.4F - 76F 32F 55 0% 0.00 in - 0% 0 mhos 12 - Yes - - -
08/30/2015 04:31 Wet 62.6F - 76F 32F 60 0% 0.00 in - 0% 0 mhos 14 - Yes - - -
08/30/2015 04:25 Wet 62.4F - 76F 32F 70 0% 0.00 in - 0% 0 mhos 23 - Yes - - -
08/30/2015 04:16 Wet 62.4F - 77F 32F 65 0% 0.00 in - 0% 0 mhos 31 - Yes - - -
Date/Time
(MDT)
Sf
Temp Chem Water Layer Surface Precipitation
Sfc Pvt Sub Frz Factor Pct Dpth DpthThk IcePct Cond Salin FI Type Intens Accum Rate
08/30/2015 04:15 Wet 62.4F - 77F 32F 65 0% 0.00 in - 0% 0 mhos 31 - Yes - - -
08/30/2015 04:05 Wet 62.6F - 77F 32F 65 0% 0.00 in - 0% 0 mhos 19 - Yes - - -
08/30/2015 04:01 Wet 62.6F - 77F 32F 70 0% 0.00 in - 0% 0 mhos 22 - Yes - - -
08/30/2015 03:55 Wet 62.4F - 77F 32F 90 0% 0.00 in - 0% 1 mhos 55 - Yes - - -
08/30/2015 03:46 Wet 62.2F - 77F 32F 95 0% 0.00 in - 0% 1 mhos 50 - Yes - - -
08/30/2015 03:45 Wet 62.2F - 77F 32F 95 0% 0.00 in - 0% 1 mhos 54 - Yes - - -
08/30/2015 03:34 Wet 62.2F - 77F 32F 95 0% 0.00 in - 0% 1 mhos 66 - Yes - - -
08/30/2015 03:31 Wet 62.2F - 77F 32F 90 0% 0.00 in - 0% 1 mhos 35 - Yes - - -
08/30/2015 03:24 Wet 62.2F - 77F 32F 95 0% 0.00 in - 0% 0 mhos 26 - Yes - - -
08/30/2015 03:16 Wet 62.2F - 77F 32F 95 0% 0.00 in - 0% 0 mhos 31 - Yes - - -
08/30/2015 03:14 Wet 62.2F - 77F 32F 95 0% 0.00 in - 0% 1 mhos 36 - Yes - - -
08/30/2015 03:04 Wet 62.2F - 77F 32F 95 2% 0.00 in - 0% 6 mhos 411 - Yes - - -
08/30/2015 03:01 Wet 62.2F - 77F 32F 95 2% 0.00 in - 0% 6 mhos 415 - Yes - - -
08/30/2015 02:54 Wet 61.9F - 77F 32F 95 2% 0.00 in - 0% 6 mhos 409 - Yes - - -
08/30/2015 02:46 Wet 62.1F - 77F 31F 95 2% 0.00 in - 0% 6 mhos 437 - Yes - - -
Date/Time
(MDT)
Sf
Temp Chem Water Layer Surface Precipitation
Sfc Pvt Sub Frz Factor Pct Dpth DpthThk IcePct Cond Salin FI Type Intens Accum Rate
08/30/2015 02:44 Wet 62.2F - 77F 32F 95 2% 0.00 in - 0% 6 mhos 392 - Yes - - -
08/30/2015 02:34 Wet 62.4F - 77F 31F 95 2% 0.00 in - 0% 6 mhos 452 - Yes - - -
08/30/2015 02:31 Wet 62.6F - 77F 31F 95 2% 0.00 in - 0% 6 mhos 449 - Yes - - -
08/30/2015 02:24 Wet 63.0F - 77F 32F 95 1% 0.00 in - 0% 4 mhos 287 - Yes - - -
08/30/2015 02:16 Wet 63.7F - 77F 32F 95 1% 0.00 in - 0% 5 mhos 352 - Yes - - -
08/30/2015 02:14 Wet 63.9F - 77F 31F 95 2% 0.00 in - 0% 7 mhos 492 - Yes - - -
08/30/2015 02:04 Wet 64.6F - 77F 32F 60 1% 0.00 in - 0% 3 mhos 235 - Yes - - -
08/30/2015 02:01 Wet 65.3F - 77F 32F 45 0% 0.00 in - 0% 0 mhos 7 - Yes - - -
08/30/2015 01:54 Dry 66.4F - 77F - - - - - - 0 mhos 0 - None None - -
08/30/2015 01:46 Dry 66.0F - 77F - - - - - - 0 mhos 0 - None None - -
08/30/2015 01:44 Dry 66.0F - 77F - - - - - - 0 mhos 0 - None None - -
08/30/2015 01:34 Dry 65.7F - 77F - - - - - - 0 mhos 0 - None None - -
08/30/2015 01:31 Dry 65.5F - 77F - - - - - - 0 mhos 0 - None None - -
08/30/2015 01:24 Dry 65.5F - 77F - - - - - - 0 mhos 0 - None None - -
08/30/2015 01:16 Dry 65.7F - 77F - - - - - - 0 mhos 0 - None None - -
Date/Time
(MDT)
Sf
Temp Chem Water Layer Surface Precipitation
Sfc Pvt Sub Frz Factor Pct Dpth DpthThk IcePct Cond Salin FI Type Intens Accum Rate
08/30/2015 01:14 Dry 65.7F - 78F - - - - - - 0 mhos 0 - None None - -
08/30/2015 01:03 Dry 66.0F - 78F - - - - - - 0 mhos 0 - None None - -
08/30/2015 01:01 Dry 66.0F - 78F - - - - - - 0 mhos 0 - None None - -
08/30/2015 00:53 Dry 66.4F - 78F - - - - - - 0 mhos 0 - None None - -
08/30/2015 00:46 Dry 66.7F - 78F - - - - - - 0 mhos 0 - None None - -
08/30/2015 00:43 Dry 66.7F - 78F - - - - - - 0 mhos 0 - None None - -
08/30/2015 00:33 Dry 67.3F - 78F - - - - - - 0 mhos 0 - None None - -
08/30/2015 00:31 Dry 67.3F - 78F - - - - - - 0 mhos 0 - None None - -
08/30/2015 00:23 Dry 67.8F - 78F - - - - - - 0 mhos 0 - None None - -
08/30/2015 00:16 Dry 68.2F - 78F - - - - - - 0 mhos 0 - None None - -
08/30/2015 00:13 Dry 68.4F - 78F - - - - - - 0 mhos 0 - None None - -
08/30/2015 00:03 Dry 69.3F - 78F - - - - - - 0 mhos 0 - None None - -
08/30/2015 00:01 Dry 69.4F - 78F - - - - - - 0 mhos 0 - None None - -
08/29/2015 23:53 Dry 69.6F - 78F - - - - - - 0 mhos 0 - None None - -
08/29/2015 23:46 Dry 69.8F - 78F - - - - - - 0 mhos 0 - None None - -
Date/Time
(MDT)
Sf
Temp Chem Water Layer Surface Precipitation
Sfc Pvt Sub Frz Factor Pct Dpth DpthThk IcePct Cond Salin FI Type Intens Accum Rate
08/29/2015 23:43 Dry 69.8F - 78F - - - - - - 0 mhos 0 - None None - -
08/29/2015 23:33 Dry 70.0F - 78F - - - - - - 0 mhos 0 - None None - -
08/29/2015 23:31 Dry 70.0F - 78F - - - - - - 0 mhos 0 - None None - -
08/29/2015 23:23 Dry 70.0F - 78F - - - - - - 0 mhos 0 - None None - -
08/29/2015 23:16 Dry 70.0F - 78F - - - - - - 0 mhos 0 - None None - -
08/29/2015 23:13 Dry 70.0F - 78F - - - - - - 0 mhos 0 - None None - -
08/29/2015 23:03 Dry 69.6F - 78F - - - - - - 0 mhos 0 - None None - -
08/29/2015 23:01 Dry 69.6F - 78F - - - - - - 0 mhos 0 - None None - -
08/29/2015 22:53 Dry 69.8F - 78F - - - - - - 0 mhos 0 - None None - -
08/29/2015 22:46 Dry 69.4F - 78F - - - - - - 0 mhos 0 - None None - -
08/29/2015 22:43 Dry 69.6F - 78F - - - - - - 0 mhos 0 - None None - -
08/29/2015 22:32 Dry 69.8F - 78F - - - - - - 0 mhos 0 - None None - -
08/29/2015 22:31 Dry 69.8F - 78F - - - - - - 0 mhos 0 - None None - -
08/29/2015 22:22 Dry 69.8F - 78F - - - - - - 0 mhos 0 - None None - -
08/29/2015 22:16 Dry 70.0F - 78F - - - - - - 0 mhos 0 - None None - -
Date/Time
(MDT)
Sf
Temp Chem Water Layer Surface Precipitation
Sfc Pvt Sub Frz Factor Pct Dpth DpthThk IcePct Cond Salin FI Type Intens Accum Rate
08/29/2015 22:12 Dry 70.0F - 78F - - - - - - 0 mhos 0 - None None - -
08/29/2015 22:02 Dry 70.3F - 78F - - - - - - 0 mhos 0 - None None - -
08/29/2015 22:01 Dry 70.5F - 78F - - - - - - 0 mhos 0 - None None - -
08/29/2015 21:52 Dry 71.1F - 78F - - - - - - 0 mhos 0 - None None - -
08/29/2015 21:46 Dry 71.4F - 78F - - - - - - 0 mhos 0 - None None - -
08/29/2015 21:42 Dry 71.8F - 78F - - - - - - 0 mhos 0 - None None - -
08/29/2015 21:32 Dry 72.3F - 78F - - - - - - 0 mhos 0 - None None - -
08/29/2015 21:31 Dry 72.1F - 78F - - - - - - 0 mhos 0 - None None - -
08/29/2015 21:22 Dry 72.3F - 77F - - - - - - 0 mhos 0 - None None - -
08/29/2015 21:16 Dry 72.3F - 77F - - - - - - 0 mhos 0 - None None - -
08/29/2015 21:12 Dry 72.5F - 77F - - - - - - 0 mhos 0 - None None - -
08/29/2015 21:02 Dry 73.0F - 77F - - - - - - 0 mhos 0 - None None - -
08/29/2015 21:01 Dry 73.2F - 77F - - - - - - 0 mhos 0 - None None - -
08/29/2015 20:52 Dry 73.4F - 77F - - - - - - 0 mhos 0 - None None - -
08/29/2015 20:46 Dry 73.9F - 77F - - - - - - 0 mhos 0 - None None - -
Date/Time
(MDT)
Sf
Temp Chem Water Layer Surface Precipitation
Sfc Pvt Sub Frz Factor Pct Dpth DpthThk IcePct Cond Salin FI Type Intens Accum Rate
08/29/2015 20:42 Dry 74.1F - 77F - - - - - - 0 mhos 0 - None None - -
08/29/2015 20:32 Dry 75.0F - 77F - - - - - - 0 mhos 0 - None None - -
08/29/2015 20:31 Dry 75.0F - 77F - - - - - - 0 mhos 0 - None None - -
08/29/2015 20:22 Dry 75.7F - 77F - - - - - - 0 mhos 0 - None None - -
08/29/2015 20:16 Dry 76.5F - 77F - - - - - - 0 mhos 0 - None None - -
08/29/2015 20:12 Dry 76.6F - 77F - - - - - - 0 mhos 0 - None None - -
08/29/2015 20:01 Dry 77.7F - 77F - - - - - - 0 mhos 0 - None None - -
08/29/2015 20:01 Dry 77.7F - 77F - - - - - - 0 mhos 0 - None None - -
08/29/2015 19:51 Dry 78.6F - 77F - - - - - - 0 mhos 0 - None None - -
08/29/2015 19:46 Dry 78.8F - 77F - - - - - - 0 mhos 0 - None None - -
08/29/2015 19:41 Dry 79.5F - 77F - - - - - - 0 mhos 0 - None None - -
08/29/2015 19:31 Dry 80.1F - 77F - - - - - - 0 mhos 0 - None None - -
08/29/2015 19:31 Dry 80.1F - 77F - - - - - - 0 mhos 0 - None None - -
08/29/2015 19:21 Dry 81.0F - 76F - - - - - - 0 mhos 0 - None None - -
08/29/2015 19:16 Dry 81.7F - 76F - - - - - - 0 mhos 0 - None None - -
Date/Time
(MDT)
Sf
Temp Chem Water Layer Surface Precipitation
Sfc Pvt Sub Frz Factor Pct Dpth DpthThk IcePct Cond Salin FI Type Intens Accum Rate
08/29/2015 19:11 Dry 82.0F - 76F - - - - - - 0 mhos 0 - None None - -
08/29/2015 19:01 Dry 82.4F - 76F - - - - - - 0 mhos 0 - None None - -
08/29/2015 19:01 Dry 82.4F - 76F - - - - - - 0 mhos 0 - None None - -
08/29/2015 18:51 Dry 83.3F - 76F - - - - - - 0 mhos 0 - None None - -
08/29/2015 18:46 Dry 83.7F - 76F - - - - - - 0 mhos 0 - None None - -
08/29/2015 18:41 Dry 84.0F - 76F - - - - - - 0 mhos 0 - None None - -
08/29/2015 18:31 Dry 84.6F - 76F - - - - - - 0 mhos 0 - None None - -
08/29/2015 18:31 Dry 84.6F - 76F - - - - - - 0 mhos 0 - None None - -
08/29/2015 18:21 Dry 85.6F - 76F - - - - - - 0 mhos 0 - None None - -
08/29/2015 18:16 Dry 86.2F - 76F - - - - - - 0 mhos 0 - None None - -
08/29/2015 18:11 Dry 86.7F - 76F - - - - - - 0 mhos 0 - None None - -
08/29/2015 18:01 Dry 87.8F - 76F - - - - - - 0 mhos 0 - None None - -
08/29/2015 18:01 Dry 87.8F - 76F - - - - - - 0 mhos 0 - None None - -
08/29/2015 17:51 Dry 90.5F - 76F - - - - - - 0 mhos 0 - None None - -
08/29/2015 17:46 Dry 90.9F - 76F - - - - - - 0 mhos 0 - None None - -
Date/Time
(MDT)
Sf
Temp Chem Water Layer Surface Precipitation
Sfc Pvt Sub Frz Factor Pct Dpth DpthThk IcePct Cond Salin FI Type Intens Accum Rate
08/29/2015 17:41 Dry 93.6F - 76F - - - - - - 0 mhos 0 - None None - -
08/29/2015 17:31 Dry 95.5F - 76F - - - - - - 0 mhos 0 - None None - -
08/29/2015 17:30 Dry 95.5F - 76F - - - - - - 0 mhos 0 - None None - -
08/29/2015 17:20 Dry 97.5F - 75F - - - - - - 0 mhos 0 - None None - -
08/29/2015 17:16 Dry 98.4F - 75F - - - - - - 0 mhos 0 - None None - -
08/29/2015 17:10 Dry 98.6F - 75F - - - - - - 0 mhos 0 - None None - -
08/29/2015 17:01 Dry 100.4F - 75F - - - - - - 0 mhos 0 - None None - -
08/29/2015 17:00 Dry 100.4F - 75F - - - - - - 0 mhos 0 - None None - -
08/29/2015 16:50 Dry 100.6F - 75F - - - - - - 0 mhos 0 - None None - -
08/29/2015 16:46 Dry 101.8F - 75F - - - - - - 0 mhos 0 - None None - -
08/29/2015 16:40 Dry 102.2F - 75F - - - - - - 0 mhos 0 - None None - -
08/29/2015 16:31 Dry 104.2F - 75F - - - - - - 0 mhos 0 - None None - -
08/29/2015 16:30 Dry 104.2F - 75F - - - - - - 0 mhos 0 - None None - -
08/29/2015 16:20 Dry 99.0F - 75F - - - - - - 0 mhos 0 - None None - -
08/29/2015 16:16 Dry 97.3F - 75F - - - - - - 0 mhos 0 - None None - -
Date/Time
(MDT)
Sf
Temp Chem Water Layer Surface Precipitation
Sfc Pvt Sub Frz Factor Pct Dpth DpthThk IcePct Cond Salin FI Type Intens Accum Rate
08/29/2015 16:10 Dry 97.9F - 75F - - - - - - 0 mhos 0 - None None - -
08/29/2015 16:01 Dry 101.3F - 75F - - - - - - 0 mhos 0 - None None - -
08/29/2015 16:00 Dry 101.7F - 75F - - - - - - 0 mhos 0 - None None - -
08/29/2015 15:50 Dry 100.9F - 75F - - - - - - 0 mhos 0 - None None - -
08/29/2015 15:46 Dry 104.9F - 75F - - - - - - 0 mhos 0 - None None - -
08/29/2015 15:40 Dry 104.2F - 75F - - - - - - 0 mhos 0 - None None - -
08/29/2015 15:31 Dry 101.8F - 75F - - - - - - 0 mhos 0 - None None - -
08/29/2015 15:30 Dry 101.5F - 75F - - - - - - 0 mhos 0 - None None - -
08/29/2015 15:20 Dry 98.6F - 75F - - - - - - 0 mhos 0 - None None - -
08/29/2015 15:16 Dry 99.3F - 75F - - - - - - 0 mhos 0 - None None - -
08/29/2015 15:10 Dry 97.0F - 75F - - - - - - 0 mhos 0 - None None - -
08/29/2015 15:01 Dry 92.1F - 75F - - - - - - 0 mhos 0 - None None - -
08/29/2015 15:00 Dry 91.6F - 75F - - - - - - 0 mhos 0 - None None - -
08/29/2015 14:49 Dry 93.2F - 75F - - - - - - 0 mhos 0 - None None - -
08/29/2015 14:46 Dry 93.4F - 75F - - - - - - 0 mhos 0 - None None - -
Date/Time
(MDT)
Sf
Temp Chem Water Layer Surface Precipitation
Sfc Pvt Sub Frz Factor Pct Dpth DpthThk IcePct Cond Salin FI Type Intens Accum Rate
08/29/2015 14:39 Dry 95.2F - 75F - - - - - - 0 mhos 0 - None None - -
08/29/2015 14:31 Dry 92.8F - 75F - - - - - - 0 mhos 0 - None None - -
08/29/2015 14:29 Dry 92.5F - 75F - - - - - - 0 mhos 0 - None None - -
08/29/2015 14:19 Dry 92.5F - 75F - - - - - - 0 mhos 0 - None None - -
08/29/2015 14:16 Dry 90.9F - 75F - - - - - - 0 mhos 0 - None None - -
08/29/2015 14:09 Dry 93.6F - 75F - - - - - - 0 mhos 0 - None None - -
08/29/2015 14:01 Dry 90.9F - 75F - - - - - - 0 mhos 0 - None None - -
08/29/2015 13:59 Dry 91.8F - 75F - - - - - - 0 mhos 0 - None None - -
08/29/2015 13:49 Dry 91.6F - 75F - - - - - - 0 mhos 0 - None None - -
08/29/2015 13:46 Dry 90.3F - 75F - - - - - - 0 mhos 0 - None None - -
08/29/2015 13:39 Dry 90.1F - 75F - - - - - - 0 mhos 0 - None None - -
08/29/2015 13:31 Dry 88.0F - 75F - - - - - - 0 mhos 0 - None None - -
08/29/2015 13:29 Dry 87.6F - 75F - - - - - - 0 mhos 0 - None None - -
08/29/2015 13:19 Dry 88.5F - 75F - - - - - - 0 mhos 0 - None None - -
08/29/2015 13:16 Dry 88.7F - 75F - - - - - - 0 mhos 0 - None None - -
Date/Time
(MDT)
Sf
Temp Chem Water Layer Surface Precipitation
Sfc Pvt Sub Frz Factor Pct Dpth DpthThk IcePct Cond Salin FI Type Intens Accum Rate
08/29/2015 13:09 Dry 87.3F - 75F - - - - - - 0 mhos 0 - None None - -
08/29/2015 13:01 Dry 87.6F - 75F - - - - - - 0 mhos 0 - None None - -
08/29/2015 12:59 Dry 86.0F - 75F - - - - - - 0 mhos 0 - None None - -
08/29/2015 12:49 Dry 85.6F - 75F - - - - - - 0 mhos 0 - None None - -
08/29/2015 12:46 Dry 85.6F - 75F - - - - - - 0 mhos 0 - None None - -
08/29/2015 12:39 Dry 86.5F - 75F - - - - - - 0 mhos 0 - None None - -
08/29/2015 12:31 Dry 84.4F - 75F - - - - - - 0 mhos 0 - None None - -
08/29/2015 12:28 Dry 84.7F - 75F - - - - - - 0 mhos 0 - None None - -
08/29/2015 12:18 Dry 84.4F - 75F - - - - - - 0 mhos 0 - None None - -
08/29/2015 12:16 Dry 84.7F - 75F - - - - - - 0 mhos 0 - None None - -
08/29/2015 12:08 Dry 82.6F - 75F - - - - - - 0 mhos 0 - None None - -
08/29/2015 12:01 Dry 81.1F - 75F - - - - - - 0 mhos 0 - None None - -
Change End Date:

Copyright © 1998-2015 Vaisala, Inc.
All Rights Reserved
Send comments about the data to:
SCAN Web ® is a registered trademark of Vaisala, Inc.
SCAN Web Version 6.0